Location: Sternwarte Stuttgart
(48.7670°N, 9.1830°E)
Time: 03:12:55
(UTC+01:00)

Daily predictions for brighter satellites

Satellite Brightness Start Highest point End
(mag) Time Altitude Azimuth Time Altitude Azimuth Time Altitude Azimuth
Cosmos 2297 Rocket 4.3 00:37:22 10° NNW 00:39:22 22° NNW 00:39:22 22° NNW
USA 215 4.4 00:37:22 10° ENE 00:45:25 36° NW 00:49:38 10° WNW
ATLAS 3B R/B 3.7 00:49:33 43° NE 00:49:33 43° NE 00:54:03 10° NE
Cosmos 2369 Rocket 4.5 00:58:48 17° NW 00:58:48 17° NW 01:02:15 10° N
Cosmos 2227 Rocket 4.5 01:02:33 10° NNW 01:03:49 17° NW 01:03:49 17° NW
CZ-4C R/B 3.9 01:10:42 30° N 01:10:42 30° N 01:15:38 10° NE
Cosmos 1980 Rocket 4.3 01:32:12 20° ENE 01:32:12 20° ENE 01:34:26 10° NE
USA 238 DEB 4.4 01:32:06 50° NNE 01:32:06 50° NNE 01:37:15 10° NE
USA 238 4.4 01:32:13 50° NNE 01:32:13 50° NNE 01:37:21 10° NE
Cosmos 2263 Rocket 4.2 01:38:02 10° N 01:42:29 23° NE 01:44:50 18° ENE
Cosmos 1943 Rocket 4.5 01:42:46 16° NW 01:42:46 16° NW 01:46:05 10° N
NOSS 3-2 (C) 4.2 02:01:50 50° NE 02:01:50 50° NE 02:06:46 10° NE
SL-16 R/B 3.0 02:16:01 58° NE 02:16:01 58° NE 02:21:27 10° N
CENTAUR R/B 3.4 02:21:25 40° E 02:21:25 40° E 02:26:57 10° NE
ADEOS Rocket 4.2 02:16:41 10° NNE 02:21:28 29° E 02:21:28 29° E
USA 215 3.5 02:19:31 10° ESE 02:26:00 66° NNE 02:29:01 34° NW
ATLAS 3B R/B 4.0 02:36:46 29° NW 02:38:32 33° NNW 02:44:49 10° NE
Cosmos 2322 Rocket 3.4 02:40:49 34° E 02:40:49 34° E 02:45:35 10° NE
COSMOS 2455 3.8 02:42:18 38° NNW 02:42:18 38° NNW 02:47:19 10° NNE
SL-16 R/B 3.3 02:44:22 36° ESE 02:44:22 36° ESE 02:49:24 10° NE
Lacrosse 4 Rocket 4.0 02:41:14 10° N 02:44:19 20° NE 02:47:25 10° E
Cosmos 968 Rocket 4.4 02:40:35 10° NNW 02:44:36 44° NNE 02:44:36 44° NNE
Cosmos 44 4.5 02:49:28 39° NE 02:49:28 39° NE 02:52:27 10° NE
Cosmos 2292 Rocket 4.5 02:43:48 10° N 02:50:59 79° NE 02:50:59 79° NE
Cosmos 44 Rocket 4.4 02:56:18 41° N 02:56:18 41° N 02:59:41 10° NNE
Cosmos 1697 Rocket 3.4 02:56:44 45° NNW 02:56:44 45° NNW 03:01:14 10° NNE
ARIANE 5 R/B 2.9 02:58:27 10° NNE 03:02:47 63° NE 03:02:47 63° NE
NOSS 3-2 (A) 4.2 03:03:12 43° NW 03:03:47 44° NNW 03:10:25 10° NE
MOZ.5/SAFIR/RUBIN 5/SL-8 4.4 03:08:11 52° NNE 03:08:11 52° NNE 03:11:58 10° N
CZ-2D R/B 2.2 03:02:47 10° NNE 03:07:57 78° NE 03:07:57 78° NE
Cosmos 1346 Rocket 4.5 03:13:48 31° NNE 03:13:48 31° NNE 03:15:59 10° NNE
COBE Rocket 4.4 03:07:36 10° NNE 03:12:37 55° E 03:12:54 54° ESE
Cosmos 2360 Rocket 3.9 03:10:45 20° SE 03:12:58 26° ESE 03:17:32 10° NE
Cosmos 1980 Rocket 2.5 03:13:58 56° NNW 03:13:58 56° NNW 03:19:04 10° NNE
Resurs 1-4 Rocket 2.2 03:08:31 10° NNE 03:13:18 73° N 03:13:18 73° N
Cosmos 1461 4.4 03:17:52 32° NNE 03:17:52 32° NNE 03:20:11 10° NNE
SL-8 R/B 4.4 03:17:45 50° E 03:17:45 50° E 03:21:19 10° E
Orbus 7S? 4.4 03:21:35 67° SW 03:22:31 86° SE 03:26:48 10° NE
IRS-1D 3.7 03:19:09 10° N 03:23:19 58° NNW 03:23:19 58° NNW
Cosmos 2263 Rocket 2.1 03:21:28 10° NNW 03:26:23 68° NW 03:26:23 68° NW
Meteor 1-5 Rocket 4.0 03:25:05 10° NNW 03:29:58 72° NW 03:29:58 72° NW
Genesis I 4.3 03:32:45 42° E 03:32:45 42° E 03:35:47 10° NE
ATLAS 5 CENTAUR R/B 4.1 03:28:02 10° NNW 03:32:59 30° NNE 03:38:21 10° E
Okean O Rocket 3.4 03:33:24 10° NE 03:37:18 29° E 03:39:55 17° SE
Cosmos 1777 Rocket 4.2 03:33:06 10° NNW 03:38:26 73° ENE 03:43:43 10° SSE
ADEOS II 3.7 03:37:07 10° NNE 03:41:47 31° E 03:46:24 10° SSE
Cosmos 1812 3.3 03:44:16 51° ESE 03:44:22 52° E 03:48:09 10° NNE
Okean 3 4.2 03:54:27 41° NW 03:54:27 41° NW 03:57:42 10° N
MOS 1 Rocket 3.5 03:49:26 10° NNE 03:54:16 66° E 03:55:56 38° S
Cosmos 1378 Rocket 4.2 03:55:17 41° NW 03:55:17 41° NW 03:58:38 10° N
Cosmos 2315 Rocket 4.0 03:55:25 47° WSW 03:56:50 58° WNW 04:03:00 10° N
UNKNOWN OBJECT B 3.7 03:54:02 10° N 03:56:33 36° NNW 03:56:33 36° NNW
SL-16 R/B 3.8 04:01:06 24° WNW 04:01:06 24° WNW 04:04:32 10° NW
Cosmos 1340 3.9 03:58:33 26° SE 04:00:10 39° E 04:03:44 10° NNE
Gblst 52 Del rocket 4.1 03:58:27 40° WNW 04:00:34 78° SSW 04:06:43 10° ESE
Cosmos 1455 Rocket 3.2 03:56:20 10° N 04:00:45 75° E 04:04:01 18° SSE
DNEPR-1 R/B 4.0 04:01:36 50° WSW 04:03:03 74° NW 04:08:01 10° NE
Cosmos 2327 Rocket 4.4 03:57:29 10° N 04:03:52 86° W 04:10:05 10° S
Cosmos 1743 4.4 04:00:50 10° N 04:04:24 34° ENE 04:07:56 10° SE
ADEOS Rocket 3.1 04:01:57 10° N 04:07:21 46° WNW 04:08:26 41° W
ADEOS 4.4 04:03:01 10° N 04:07:35 32° WNW 04:07:51 31° WNW
USA 215 3.3 04:02:45 10° SSE 04:09:08 54° SW 04:15:34 10° WNW
Cosmos 1975 Rocket 3.1 04:09:39 55° W 04:09:46 55° WNW 04:14:03 10° N
CENTAUR R/B 3.0 04:08:36 35° W 04:11:05 54° NW 04:18:09 10° NE
CZ-4B R/B 4.0 04:05:37 10° NNE 04:11:11 53° E 04:16:37 10° S
SL-08 ROCKET BODY 4.3 04:06:59 10° NNW 04:12:46 60° W 04:16:33 22° SSW
EO 1 Del DPAF 3.2 04:12:58 10° SSE 04:16:49 85° E 04:20:43 10° NNW
Nadezhda 1 Rocket 4.0 04:12:10 10° S 04:18:13 77° E 04:24:18 10° NNE
BREEZE M DEB (TANK) 4.0 04:00:44 10° W 04:18:25 86° SSW 04:23:03 10° ESE
Okean 1 3.3 04:17:09 33° S 04:18:54 81° E 04:23:01 10° NNE
Lacrosse 4 Rocket 1.2 04:19:18 10° NW 04:23:28 71° WSW 04:27:41 10° SSE
Cosmos 2322 Rocket 2.6 04:22:38 34° W 04:24:29 45° NW 04:29:53 10° NNE
Molniya-1 3.6 04:24:58 65° NNW 04:24:58 65° NNW 04:28:33 10° NE
Cosmos 1975 2.7 04:21:19 10° NNW 04:25:23 66° W 04:27:45 23° S
Cosmos 2341 Rocket 4.5 04:19:37 10° N 04:25:52 62° ENE 04:32:00 10° SSE
Cosmos 2074 Rocket 4.0 04:20:23 10° NNW 04:26:29 56° W 04:32:32 10° SSW
SL-16 R/B 2.7 04:26:14 32° W 04:28:17 44° NW 04:33:43 10° NNE
Cosmos 1536 Rocket 3.7 04:25:55 16° S 04:29:31 79° E 04:34:01 10° NNE
COSMOS 2428 3.6 04:26:41 10° S 04:32:06 48° ESE 04:37:34 10° NE
Meteor 2-13 Rocket 4.4 04:28:01 10° NNW 04:34:06 63° W 04:40:08 10° S
Cosmos 1500 3.4 04:32:19 10° NNW 04:36:01 47° W 04:37:25 31° SSW
PSLV R/B 3.8 04:36:07 10° N 04:39:46 52° WNW 04:41:06 33° SW
Cosmos 2219 Rocket 3.8 04:35:24 10° SSE 04:40:19 33° ESE 04:45:16 10° NE
ARIANE 5 R/B 4.0 04:38:43 10° NNW 04:42:09 19° WNW 04:43:08 18° WNW
PSLV R/B 3.5 04:37:54 10° NNE 04:42:16 89° ESE 04:46:34 10° SSW
Thor Agena Rocket 4.3 04:38:24 10° SE 04:43:19 54° ENE 04:48:15 10° N
Cosmos 1844 Rocket 2.6 04:39:52 10° NNW 04:45:30 83° WSW 04:51:04 10° SSE
CZ-2D R/B 3.7 04:44:00 10° NNW 04:47:44 19° NW 04:49:18 17° WNW
IRS-1C Rocket 4.0 04:43:10 10° NNE 04:48:26 76° WNW 04:53:41 10° SSW
CZ-2C R/B 3.8 04:46:30 10° S 04:50:59 53° W 04:55:26 10° NNW
Tiangong 2 2.5 04:50:49 22° SSW 04:51:01 22° SSW 04:53:32 10° SE
CZ-4C R/B 4.3 04:45:04 10° NW 04:51:03 34° NNE 04:57:43 10° E
Resurs 1-4 Rocket 3.8 04:49:47 10° NNW 04:52:56 16° NW 04:54:23 15° WNW
Cosmos 1570 Rocket 4.0 04:49:39 10° SSW 04:54:53 85° ESE 05:00:09 10° NNE
Cosmos 2278 Rocket 2.9 04:49:22 10° NNW 04:55:00 57° ENE 05:00:34 10° SE
Cosmos 2360 Rocket 2.3 04:52:32 19° SW 04:56:34 59° WNW 05:02:11 10° NNE
Cosmos 1898 Rocket 3.7 04:52:47 10° NNW 04:58:02 77° ENE 05:03:12 10° SSE
Cosmos 1980 Rocket 4.1 04:55:43 11° WNW 04:58:44 16° NW 05:02:08 10° N
SL-8 R/B 3.6 04:55:43 20° W 04:59:05 81° S 05:03:52 10° ESE
ERS-2 2.5 04:56:09 10° NNE 04:59:52 66° ESE 05:03:32 10° S
Meteor 2-4 Rocket 4.2 04:57:25 10° S 05:02:55 62° E 05:08:18 10° NNE
Cosmos 2237 Rocket 4.1 04:59:54 10° SSE 05:04:50 31° ESE 05:09:48 10° NE
PAYLOAD B 4.4 04:59:31 10° N 05:05:01 57° WNW 05:10:30 10° SW
ERBS 4.2 05:06:33 10° NW 05:09:36 27° NNE 05:12:39 10° ENE
Cosmos 2263 Rocket 4.0 05:07:33 10° WNW 05:07:57 11° WNW 05:07:57 11° WNW
CZ-4B R/B 4.4 05:05:53 10° NNE 05:10:24 74° ESE 05:14:55 10° S
CZ-4B R/B 3.5 05:08:26 10° N 05:11:37 30° WNW 05:13:50 16° WSW
Okean O Rocket 2.3 05:09:41 10° N 05:13:43 34° WNW 05:17:24 12° SW
ATLAS 5 CENTAUR R/B 2.4 05:12:30 10° NW 05:18:24 89° NE 05:24:51 10° SE
Cosmos 1295 Rocket 4.5 05:13:55 10° NNW 05:20:10 69° W 05:26:16 10° S
Cosmos 2333 Rocket 3.1 05:14:49 10° S 05:20:20 53° ESE 05:25:55 10° NE
Meteor 1-28 Rocket 4.2 05:16:54 10° SSE 05:20:36 51° ENE 05:24:20 10° N
ADEOS II 2.5 05:16:41 10° N 05:21:38 43° WNW 05:26:34 10° SW
Cosmos 858 Rocket 4.5 05:17:20 10° NNW 05:22:39 79° WSW 05:27:54 10° SSE
Okean-O 2.6 05:18:57 10° NNE 05:23:26 86° WNW 05:27:52 10° SSW
Cosmos 2366 rocket 4.2 05:20:44 10° N 05:27:07 81° E 05:33:29 10° SSE
Cosmos 2322 4.3 05:24:01 10° WSW 05:29:22 41° NW 05:34:48 10° NNE
COSMO-SKYMED 1 2.7 05:25:09 10° SSE 05:29:29 85° ENE 05:33:52 10° NNW
Cosmos 1937 Rocket 3.5 05:25:31 10° NNW 05:30:53 81° WSW 05:36:11 10° SSE
Cosmos 2228 4.2 05:26:57 10° N 05:31:09 48° ENE 05:35:21 10° SSE
NOAA 6 4.3 05:27:40 10° NNE 05:32:49 76° ESE 05:37:55 10° S
Cosmos 405 Rocket 3.2 05:29:23 10° S 05:33:25 71° E 05:37:27 10° NNE
Cosmos 1726 Rocket 3.7 05:29:08 10° N 05:33:36 83° E 05:38:04 10° S
Meteor 1-13 Rocket 4.4 05:29:39 10° SSW 05:35:01 50° WNW 05:40:31 10° N
Cosmos 1340 4.2 05:33:26 10° WSW 05:36:04 18° WNW 05:38:46 10° NNW
Cosmos 405 4.4 05:35:00 10° N 05:38:24 43° ENE 05:41:48 10° SSE
Cosmos 1666 3.4 05:34:59 10° NNW 05:38:30 33° W 05:42:00 10° SSW
Cosmos 2298 Rocket 4.1 05:33:54 10° NNW 05:39:09 58° WSW 05:44:22 10° S
Meteor 1-31 Rocket 2.9 05:35:29 10° N 05:39:12 50° WNW 05:42:53 10° SSW
Cosmos 1743 4.0 05:37:05 10° NW 05:40:02 21° W 05:42:58 10° SW
Cosmos 1025 Rocket 3.1 05:38:55 10° SSW 05:43:16 66° W 05:47:40 10° N
Cosmos 1892 Rocket 4.0 05:40:18 10° S 05:44:36 69° E 05:48:59 10° NNE
Cosmos 1844 4.2 05:41:06 10° NW 05:46:25 39° WSW 05:51:39 10° S
Cosmos 2333 4.4 05:42:43 10° SW 05:48:16 57° WNW 05:53:56 10° NNE
Radarsat Rocket 4.2 05:44:32 10° NNE 05:50:42 80° ESE 05:56:30 10° SSW
CZ-4B R/B 4.2 05:46:39 10° N 05:51:27 29° WNW 05:56:12 10° WSW
